Preview of NWS' New Version of Forecast
This preview is not operational and should not be used for support decisions.

Regional Weather Roundup (RWR)

Issued by National Weather Service (NWS)

                            
000
ASUS45 KSLC 200910
RWRUT 

UTAH REGIONAL WEATHER ROUNDUP
NATIONAL WEATHER SERVICE SALT LAKE CITY UT
200 AM MST WED FEB 20 2019

UTZ001>011-023>025-201000-

NORTHERN UTAH
  
CITY           SKY/WX    TMP DP  RH WIND       PRES   REMARKS
BRIGHAM CITY   CLOUDY    24  19  80 S14       29.82F WCI  12          
HILL AFB       FLURRIES  18  15  89 S12       29.80F WCI   5          
LOGAN          LGT SNOW  19  16  88 CALM      29.77F FOG              
OGDEN          LGT SNOW  19  15  84 S10       29.80F FOG     WCI   7  
SALT LAKE CITY MOCLDY    23  11  60 S13       29.83F WCI  11          
TOOELE VALLEY  MOCLDY    21  10  63 SE14      29.83F WCI   8          
WENDOVER       CLOUDY    22  14  71 CALM      29.82F                  
HEBER CITY       N/A      3  -4  72 CALM      29.78F                  
WEST JORDAN    CLOUDY    20  11  67 S10       29.84F WCI   8          

$$

UTZ011>015-024>027-201000-

CENTRAL/NORTHEAST UTAH
  
CITY           SKY/WX    TMP DP  RH WIND       PRES   REMARKS
PROVO AIRPORT  CLOUDY    20  11  68 S8        29.87F WCI  10          
MOAB/CANYONLAN CLEAR     15   5  64 SW7       29.82F WCI   5          
DELTA          CLOUDY    16  10  79 S6        29.87F WCI   7          
PRICE          PTCLDY     3  -4  72 NE3       29.76F                  
RICHFIELD      CLEAR     12   9  85 CALM      29.84F                  
ROOSEVELT      PTCLDY     0  -6  78 SW8       29.81S WCI -15          
VERNAL         PTCLDY     3  -5  69 NW6       29.77S WCI  -8          

$$

UTZ013>016-019>022-027-201000-

SOUTHERN UTAH
  
CITY           SKY/WX    TMP DP  RH WIND       PRES   REMARKS
BRYCE CANYON   PTCLDY    -9 -14  78 W5        29.77F WCI -20          
CEDAR CITY     PTCLDY     6   3  87 CALM      29.83F                  
MILFORD        PTCLDY    11   4  73 SW10      29.85F WCI  -3          
ST GEORGE      MOSUNNY   28  21  75 SE5       29.97S WCI  23          
HANKSVILLE     PTCLDY    10   3  72 CALM      29.88F                  
KANAB          CLEAR     10   7  85 N2        29.93S                  
BLANDING         N/A     10   4  77 CALM      29.86F                  

$$

REGIONAL REPORTS     COLORADO/ARIZONA
  
CITY           SKY/WX    TMP DP  RH WIND       PRES   REMARKS
CRAIG, CO      LGT SNOW   5   1  83 CALM      29.71F VSB 1            
GRAND JUNCTION LGT SNOW  17  16  95 NW6       29.79F FOG     WCI   9  
RIFLE, CO      LGT SNOW  16  13  88 S5        29.76S FOG     WCI   9  
MONTROSE, CO   CLOUDY    19   8  62 SE7       29.78F WCI  10          
CORTEZ, CO     LGT SNOW  12   8  84 N3        29.80S FOG              
COLORADO CITY    N/A     12   9  85 CALM      29.93F                  
PAGE, AZ       PTCLDY    26  11  52 NW3       29.89R                  
GRAND CANYON   PTCLDY    -6 -10  83 CALM      29.87F                  
KINGMAN, AZ    CLEAR     27  19  72 NW3       29.99S                  
FLAGSTAFF, AZ  PTCLDY     7   4  87 CALM      29.85F                  

$$

REGIONAL REPORTS    NEVADA/IDAHO/WYOMING
  
CITY           SKY/WX    TMP DP  RH WIND       PRES   REMARKS
LAS VEGAS, NV  PTCLDY    35  20  54 SW3       29.94F                  
ELY, NY        CLOUDY     4  -1  80 S13       29.82F WCI -13          
ELKO, NV       CLOUDY    21  14  74 W7        29.79F WCI  12          
POCATELLO, ID  FLURRIES  21  15  78 S13       29.73F WCI   9          
BURLEY, ID     LGT SNOW  24  21  88 SW12      29.73F FOG     WCI  13  
FORT BRIDGER,    N/A      7   2  78 W21       29.66S WCI -13          
EVANSTON, WY   PTCLDY     4  -1  80 SW21      29.63F HAZE    WCI -17  
ROCK SPRINGS,  PTCLDY     3  -2  79 W21       29.61F WCI -18          
KEMMERER, WY   LGT SNOW   3   0  85 SW10      29.59F WCI -12          

$$